Puebla, Mexico

2:01 AM CST on November 23, 2017 (GMT -0600)
Hermanos Serdan International

Weather History for MMPB - November, 2012

Change the Weather History Date:

Friday, November 23, 2012

  Actual Average Record
Temperature  
Mean Temperature 60 °F -  
Max Temperature 74 °F 67 °F 78 °F (2010)
Min Temperature 45 °F 43 °F 30 °F (2002)
Degree Days  
Heating Degree Days 6    
Growing Degree Days 10 (Base 50)    
Moisture  
Dew Point 38 °F    
Average Humidity 49    
Maximum Humidity 93    
Minimum Humidity 15    
Precipitation  
Precipitation 0.00 in - - ()
Sea Level Pressure  
Sea Level Pressure 30.23 in    
Wind  
Wind Speed 4 mph ()    
Max Wind Speed 13 mph    
Max Gust Speed -    
Visibility 7.4 miles    
Events      
Averages and records for this station are not official NWS values.
T = Trace of Precipitation, MM = Missing Value Source: Averaged Metar Reports

Daily Weather History Graph

Daily Weather History Graph

Search for Another Location

Airport or City:

Trip Planner

Search our weather history database for the weather conditions in past years. The results will help you decide how hot, cold, wet, or windy it might be!

Date:

Astronomy

Nov. 23, 2012 Rise Set
Actual Time 6:45 AM CST 5:53 PM CST
Civil Twilight 6:21 AM CST 6:16 PM CST
Nautical Twilight 5:54 AM CST 6:43 PM CST
Astronomical Twilight 5:28 AM CST 7:10 PM CST
Moon 2:41 PM CST 2:36 AM CST
Length of Visible Light 11h 55m
Length of Day
11h 08m
Waxing Gibbous, 80% of the Moon is Illuminated
Nov 23
Waxing Gibbous
Nov 28
Full
Dec 6
Last Quarter
Dec 13
New
Dec 19
First Quarter

Hourly Weather History & Observations

Time (CST) Temp. Windchill Dew Point Humidity Pressure Visibility Wind Dir Wind Speed Gust Speed Precip Events Conditions
2:45 AM 48 °F - 43 °F 78% 29.99 in 3 mi Calm Calm - -  
5:45 AM 46 °F - 42 °F 80% 30.04 in 3 mi Calm Calm - -  
6:35 AM 41.0 °F 36.4 °F 37.4 °F 87% 30.37 in 7.0 mi NW 6.9 mph - N/A   Clear
6:44 AM 41.0 °F 38.0 °F 39.2 °F 93% 30.37 in 7.0 mi NW 4.6 mph - N/A   Clear
7:43 AM 46.4 °F 43.5 °F 41.0 °F 81% 30.38 in 7.0 mi NW 5.8 mph - N/A   Clear
8:45 AM 53.6 °F - 42.8 °F 67% 30.39 in 7.0 mi NE 6.9 mph - N/A   Clear
8:50 AM 55 °F - 43 °F 53% 30.12 in 3 mi Calm Calm - -   Haze
9:49 AM 60.8 °F - 44.6 °F 55% 30.41 in 7.0 mi Calm Calm - N/A   Clear
10:41 AM 66.2 °F - 44.6 °F 46% 30.39 in 7.0 mi SSE 5.8 mph - N/A   Clear
11:45 AM 71.6 °F - 37.4 °F 29% 30.36 in 7.0 mi Calm Calm - N/A   Clear
11:50 AM 68 °F - 38 °F 22% 30.08 in 6 mi North 2.2 mph - -   Haze
12:40 PM 71.6 °F - 33.8 °F 25% 30.33 in 10.0 mi North 5.8 mph - N/A   Clear
1:41 PM 73.4 °F - 28.4 °F 19% 30.30 in 10.0 mi Calm Calm - N/A   Clear
2:40 PM 73 °F - 36 °F 16% 29.86 in 6 mi ESE 2.2 mph - -   Haze
2:42 PM 75.2 °F - 24.8 °F 15% 30.27 in 10.0 mi Calm Calm - N/A   Clear
3:42 PM 73.4 °F - 39.2 °F 29% 30.26 in 10.0 mi South 12.7 mph - N/A   Partly Cloudy
4:45 PM 69.8 °F - 39.2 °F 33% 30.27 in 10.0 mi SSE 6.9 mph - N/A   Partly Cloudy
5:40 PM 65 °F - 38 °F 25% 29.79 in 6 mi ESE 6.7 mph - -   Haze
5:42 PM 60.8 °F - 39.2 °F 45% 30.32 in 10.0 mi NE 12.7 mph - N/A   Mostly Cloudy
6:46 PM 57.2 °F - 39.2 °F 51% 30.36 in 10.0 mi North 8.1 mph - N/A   Mostly Cloudy
7:42 PM 55.4 °F - 39.2 °F 54% 30.37 in 10.0 mi North 9.2 mph - N/A   Mostly Cloudy
8:41 PM 51.8 °F - 39.2 °F 62% 30.40 in 10.0 mi North 11.5 mph - N/A   Mostly Cloudy
8:45 PM 56 °F - 37 °F 36% 29.85 in 3 mi SSE 2.2 mph - -   Scattered Clouds
9:41 PM 50.0 °F - 39.2 °F 66% 30.40 in 10.0 mi NNW 8.1 mph - N/A   Scattered Clouds
11:02 PM 46.4 °F 42.9 °F 37.4 °F 71% 30.39 in 10.0 mi NW 6.9 mph - N/A   Scattered Clouds
11:45 PM 51 °F - 37 °F 48% 29.91 in 3 mi Calm Calm - -